Volver al catálogo

MARS-1

ActivoCienciaSSO
NORAD 68830·PAYLOAD·🇺🇸 United States

Lanzado Mar 30, 2026 desde Vandenberg Space Force Base

Loading…

Próximos Pases (próximas 24 horas)

TLE

ActualizadoSource: Space-Track

Época: Sep 13, 2026, 19:57 UTC

1 68830U 26067CW  26256.83176007  .00006012  00000-0  28208-3 0  9991
2 68830  97.4618 214.2074 0003781 129.8059 230.3509 15.20021006 65959

Sigue MARS-1 en tiempo real con AllMySat

Download on the App Store